sat.trackr.live / text

‹ back to catalog

STARLINK-30529

NORAD 58047 · 2023-156V

PAYLOAD ACTIVE UNKNOWN

§ Identity

Operator
Country
US
Launch date
2023-10-09
Launch site
AFWTR
Launch vehicle
Mass (kg)
RCS (m²)

Purposes: comms

External: N2YO · Heavens-Above · Gunter

§ Orbital elements

Epoch: 2026-05-25T01:50:28.860288Z

Period
94.10 min
Inclination
53.1602°
Eccentricity
0.0001406
Mean motion
15.30209978 rev/d
Perigee alt
474.2 km
Apogee alt
476.1 km
Semi-major
6,853.3 km
B*
-4.2557e-5
RAAN
173.6661°
Arg perigee
75.9700°
Mean anomaly
284.1457°
Rev number
14,667

§ Raw data

STARLINK-305291 58047U 23156V   26145.07672292 -.00001620  00000+0 -42557-4 0  99912 58047  53.1602 173.6661 0001406  75.9700 284.1457 15.30209978146671

JSON: /api/v1/satellites/58047 · /tle

For live sub-satellite position, see the globe view (requires WebGL).

§ Visibility from observer

Set your observer location to see the next 7 days of passes ≥ 10°. The values pass through the URL so the page stays shareable.

No JS? Fill the form by hand. The geolocation button needs JavaScript.